Granada, Spain

6:31 AM CEST on August 31, 2016 (GMT +0200)
Granada

Weather History for LEGR - February, 2013

Change the Weather History Date:

Friday, February 22, 2013

  Actual Average Record
Temperature  
Mean Temperature 52 °F -  
Max Temperature 58 °F 62 °F 69 °F (1999)
Min Temperature 46 °F 37 °F 19 °F (2005)
Degree Days  
Heating Degree Days 13    
Growing Degree Days 2 (Base 50)    
Moisture  
Dew Point 48 °F    
Average Humidity 88    
Maximum Humidity 94    
Minimum Humidity 67    
Precipitation  
Precipitation 0.31 in - - ()
Sea Level Pressure  
Sea Level Pressure 29.79 in    
Wind  
Wind Speed 8 mph ()    
Max Wind Speed 21 mph    
Max Gust Speed 31 mph    
Visibility 5.0 miles    
Events Rain    
Averages and records for this station are not official NWS values.
T = Trace of Precipitation, MM = Missing Value Source: Averaged Metar Reports

Daily Weather History Graph

Daily Weather History Graph

Search for Another Location

Airport or City:

Trip Planner

Search our weather history database for the weather conditions in past years. The results will help you decide how hot, cold, wet, or windy it might be!

Date:

Astronomy

Feb. 22, 2013 Rise Set
Actual Time 7:55 AM CET 7:02 PM CET
Civil Twilight 7:29 AM CET 7:28 PM CET
Nautical Twilight 6:58 AM CET 7:58 PM CET
Astronomical Twilight 6:28 AM CET 8:29 PM CET
Moon 4:02 PM CET (2/22) 5:28 AM CET (2/22)
Length of Visible Light 11h 59m
Length of Day
11h 06m
Waxing Gibbous, 88% of the Moon is Illuminated
Feb 22
Waxing Gibbous
Feb 25
Full
Mar 4
Last Quarter
Mar 11
New
Mar 19
First Quarter

Hourly Weather History & Observations

Time (CET) Temp. Windchill Dew Point Humidity Pressure Visibility Wind Dir Wind Speed Gust Speed Precip Events Conditions
1:00 AM 50 °F - 46 °F 83% 29.92 in 4 mi South 4.6 mph - - Rain Light Rain
6:00 AM 51.8 °F - 50.0 °F 94% 29.83 in 6.2 mi WSW 10.4 mph - N/A Rain Light Rain
6:30 AM 51.8 °F - 50.0 °F 94% 29.83 in 6.2 mi West 9.2 mph - N/A Rain Light Rain
7:00 AM 51 °F - 46 °F 77% 29.86 in 5 mi West 10.4 mph - - Rain Light Rain
7:00 AM 51.8 °F - 50.0 °F 94% 29.86 in 5.6 mi West 9.2 mph - N/A Rain Light Rain
7:30 AM 51.8 °F - 48.2 °F 88% 29.86 in 5.6 mi West 13.8 mph - N/A Rain Light Rain
8:00 AM 50.0 °F - 48.2 °F 94% 29.86 in 5.6 mi West 11.5 mph - N/A   Light Drizzle
8:30 AM 50.0 °F - 48.2 °F 94% 29.86 in 5.6 mi WSW 8.1 mph - N/A   Light Drizzle
9:00 AM 51.8 °F - 48.2 °F 88% 29.86 in 5.6 mi WSW 6.9 mph - N/A   Light Drizzle
9:30 AM 51.8 °F - 50.0 °F 94% 29.86 in 5.0 mi WSW 4.6 mph - N/A Rain Light Rain
10:00 AM 51.8 °F - 50.0 °F 94% 29.86 in 5.0 mi West 3.5 mph - N/A Rain Light Rain
10:30 AM 51.8 °F - 50.0 °F 94% 29.86 in 3.7 mi Variable 2.3 mph - N/A Rain Light Rain
11:00 AM 51.8 °F - 50.0 °F 94% 29.86 in 3.7 mi West 5.8 mph - N/A Rain Light Rain
11:14 AM 51.8 °F - 50.0 °F 94% 29.86 in 3.7 mi WSW 8.1 mph - N/A Rain Rain
11:22 AM 51.8 °F - 50.0 °F 94% 29.86 in 2.5 mi WSW 6.9 mph - N/A Rain Rain
11:30 AM 51.8 °F - 50.0 °F 94% 29.86 in 3.1 mi WSW 8.1 mph - N/A Rain Rain
11:36 AM 51.8 °F - 50.0 °F 94% 29.86 in 5.6 mi West 8.1 mph - N/A Rain Light Rain
12:00 PM 51.8 °F - 50.0 °F 94% 29.86 in 5.0 mi WNW 5.8 mph - N/A Rain Light Rain
12:30 PM 53.6 °F - 51.8 °F 94% 29.86 in 5.6 mi West 8.1 mph - N/A   Mostly Cloudy
1:00 PM 53 °F - 47 °F 75% 29.84 in 4 mi West 6.9 mph - - Rain Light Rain
1:00 PM 53.6 °F - 50.0 °F 88% 29.83 in 5.0 mi WNW 5.8 mph - N/A Rain Light Rain
1:30 PM 53.6 °F - 50.0 °F 88% 29.83 in 5.6 mi West 8.1 mph - N/A   Mostly Cloudy
1:54 PM 51.8 °F - 50.0 °F 94% 29.80 in 4.3 mi West 10.4 mph - N/A Rain Rain
2:00 PM 51.8 °F - 50.0 °F 94% 29.80 in 4.3 mi West 9.2 mph - N/A Rain Rain
2:30 PM 51.8 °F - 50.0 °F 94% 29.80 in 4.3 mi West 3.5 mph - N/A Rain Rain
2:48 PM 51.8 °F - 50.0 °F 94% 29.77 in 5.6 mi Calm Calm - N/A   Mostly Cloudy
3:00 PM 53.6 °F - 50.0 °F 88% 29.77 in 5.6 mi Calm Calm - N/A   Mostly Cloudy
4:00 PM 59.0 °F - 48.2 °F 67% 29.74 in 6.2 mi WNW 11.5 mph - N/A   Mostly Cloudy
4:30 PM 57.2 °F - 48.2 °F 72% 29.71 in 6.2 mi WNW 10.4 mph - N/A   Mostly Cloudy
5:00 PM 53.6 °F - 48.2 °F 82% 29.74 in 5.0 mi West 20.7 mph - N/A Rain Light Rain
5:30 PM 53.6 °F - 48.2 °F 82% 29.71 in 5.0 mi WNW 9.2 mph - N/A   Light Drizzle
6:00 PM 53.6 °F - 48.2 °F 82% 29.71 in 5.0 mi West 8.1 mph - N/A Rain Light Rain
6:05 PM 51.8 °F - 48.2 °F 88% 29.71 in 4.3 mi WNW 10.4 mph - N/A Rain Rain
6:30 PM 51.8 °F - 48.2 °F 88% 29.74 in 3.7 mi WNW 13.8 mph - N/A Rain Heavy Rain
6:33 PM 51.8 °F - 48.2 °F 88% 29.71 in 5.0 mi WSW 9.2 mph - N/A Rain Light Rain
7:00 PM 51 °F - 45 °F 74% 29.71 in 7 mi WSW 13.8 mph - - Rain Light Rain
7:00 PM 51.8 °F - 48.2 °F 88% 29.71 in 6.2 mi West 11.5 mph - N/A   Mostly Cloudy
7:30 PM 51.8 °F - 44.6 °F 76% 29.71 in 6.2 mi West 15.0 mph 26.5 mph N/A   Mostly Cloudy
8:00 PM 51.8 °F - 46.4 °F 82% 29.71 in 6.2 mi West 19.6 mph 31.1 mph N/A   Mostly Cloudy
8:03 PM 50.0 °F - 46.4 °F 87% 29.71 in 4.3 mi West 16.1 mph - N/A Rain Rain
8:19 PM 48.2 °F - 46.4 °F 93% 29.74 in 4.3 mi West 18.4 mph - N/A Rain Light Rain
8:24 PM 48.2 °F - 44.6 °F 87% 29.74 in 3.1 mi West 19.6 mph - N/A Rain Rain
8:30 PM 48.2 °F - 44.6 °F 87% 29.74 in 3.1 mi West 19.6 mph - N/A Rain Rain
9:00 PM 46.4 °F 39.2 °F 42.8 °F 87% 29.74 in 5.0 mi West 18.4 mph - N/A Rain Light Rain
9:30 PM 46.4 °F 42.9 °F 44.6 °F 93% 29.71 in 6.2 mi WSW 6.9 mph - N/A   Mostly Cloudy
10:00 PM 48.2 °F - 42.8 °F 82% 29.71 in 6.2 mi West 13.8 mph - N/A   Mostly Cloudy
10:30 PM 48.2 °F - 44.6 °F 87% 29.74 in 5.0 mi West 13.8 mph 25.3 mph N/A Rain Rain
11:00 PM 48.2 °F - 44.6 °F 87% 29.74 in 5.0 mi WSW 8.1 mph - N/A Rain Light Rain